Back to catalog

STARLINK-38141

AliveCommunicationsSSO
NORAD 100188·PAYLOAD·🇺🇸 United States

Launched Aug 1, 2026 from Vandenberg Space Force Base

Loading…

Next Passes (next 24 hours)

TLE

FreshSource: Space-Track

Epoch: Sep 14, 2026, 12:56 UTC

1 A0188U 26175K   26257.53937133  .00090671  00000-0  60259-3 0  9992
2 A0188  97.2847  99.6142 0001306  54.4322 305.7065 15.75180018  8232

Track STARLINK-38141 in real time with AllMySat

Download on the App Store